,,Stat5,,Stat1,,Stat2,,Stat3,,Stat4,,Wind1,,Wind1,
time,status,PA1M_AVG,status,PR1M_SUM,status,RH1M_AVG,status,SR1M_AVG,status,TA1M_AVG,status,W1dAve1m,status,W1sAve1m,
2003-08-11, 00:00:00,VALID,918.486,VALID,0,VALID,100,VALID,0.0849042,VALID,19.2313,VALID,57,VALID,0.433929,
2003-08-11, 00:01:00,VALID,918.472,VALID,0,VALID,100,VALID,0.0679233,VALID,19.2246,VALID,47,VALID,0.395508,
2003-08-11, 00:02:00,VALID,918.458,VALID,0,VALID,100,VALID,0.0679233,VALID,19.2119,VALID,47,VALID,0.25641,
2003-08-11, 00:03:00,VALID,918.449,VALID,0,VALID,100,VALID,0.0679233,VALID,19.2315,VALID,47,VALID,0.168973,
2003-08-11, 00:04:00,VALID,918.425,VALID,0,VALID,100,VALID,0.0679233,VALID,19.2574,VALID,47,VALID,0.28125,
2003-08-11, 00:05:00,VALID,918.406,VALID,0,VALID,100,VALID,0.0679233,VALID,19.2442,VALID,52,VALID,0.511523,
2003-08-11, 00:06:00,VALID,918.407,VALID,0,VALID,100,VALID,0.0679233,VALID,19.2022,VALID,67,VALID,0.659334,
2003-08-11, 00:07:00,VALID,918.411,VALID,0,VALID,100,VALID,0.101885,VALID,19.1699,VALID,81,VALID,0.739231,
2003-08-11, 00:08:00,VALID,918.422,VALID,0,VALID,100,VALID,0.0509425,VALID,19.1577,VALID,66,VALID,0.888158,
2003-08-11, 00:09:00,VALID,918.418,VALID,0,VALID,99.999,VALID,0.101885,VALID,19.1416,VALID,64,VALID,0.943555,
2003-08-11, 00:10:00,VALID,918.419,VALID,0,VALID,99.998,VALID,0.0509425,VALID,19.1349,VALID,63,VALID,0.972005,
2003-08-11, 00:11:00,VALID,918.412,VALID,0,VALID,99.9883,VALID,0.0679233,VALID,19.1058,VALID,64,VALID,0.946368,
2003-08-11, 00:12:00,VALID,918.408,VALID,0,VALID,99.9883,VALID,0.0339617,VALID,19.0858,VALID,67,VALID,0.900699,
2003-08-11, 00:13:00,VALID,918.395,VALID,0,VALID,99.9771,VALID,0.0849042,VALID,19.0761,VALID,70,VALID,0.812289,
2003-08-11, 00:14:00,VALID,918.37,VALID,0,VALID,99.9647,VALID,0.101885,VALID,19.0696,VALID,62,VALID,0.69351,
2003-08-11, 00:15:00,VALID,918.34,VALID,0,VALID,99.9621,VALID,0.0679233,VALID,19.0736,VALID,51,VALID,0.789063,
2003-08-11, 00:16:00,VALID,918.317,VALID,0,VALID,99.9634,VALID,0.0339617,VALID,19.0579,VALID,48,VALID,0.768298,
2003-08-11, 00:17:00,VALID,918.272,VALID,0,VALID,99.9443,VALID,-0.0509425,VALID,19.0459,VALID,48,VALID,0.777936,
2003-08-11, 00:18:00,VALID,918.236,VALID,0,VALID,99.9507,VALID,-0.0509425,VALID,19.0492,VALID,48,VALID,0.823718,
2003-08-11, 00:19:00,VALID,918.188,VALID,0,VALID,99.9608,VALID,-0.0339617,VALID,19.0551,VALID,48,VALID,0.625617,
2003-08-11, 00:20:00,VALID,918.159,VALID,0,VALID,99.9672,VALID,-0.0169808,VALID,19.0586,VALID,48,VALID,0.565755,
2003-08-11, 00:21:00,VALID,918.137,VALID,0,VALID,99.9557,VALID,-0.0169808,VALID,19.0457,VALID,48,VALID,0.379645,
2003-08-11, 00:22:00,VALID,918.125,VALID,0,VALID,99.9418,VALID,-0.0679233,VALID,19.0325,VALID,48,VALID,0.144942,
2003-08-11, 00:23:00,VALID,918.119,VALID,0,VALID,99.929,VALID,0,VALID,19.03,VALID,48,VALID,0.190995,
2003-08-11, 00:24:00,VALID,918.121,VALID,0,VALID,99.9201,VALID,-0.0509425,VALID,19.004,VALID,48,VALID,0.268159,
2003-08-11, 00:25:00,VALID,918.113,VALID,0,VALID,99.9278,VALID,-0.0169808,VALID,19.0042,VALID,48,VALID,0.295267,
2003-08-11, 00:26:00,VALID,918.099,VALID,0,VALID,99.9341,VALID,-0.0339617,VALID,19.0042,VALID,76,VALID,0.52426,
2003-08-11, 00:27:00,VALID,918.073,VALID,0,VALID,99.9443,VALID,-0.0169808,VALID,18.998,VALID,99,VALID,0.640625,
2003-08-11, 00:28:00,VALID,918.047,VALID,0,VALID,99.9583,VALID,-0.0509425,VALID,19.0012,VALID,97,VALID,0.590061,
2003-08-11, 00:29:00,VALID,918.008,VALID,0,VALID,99.9545,VALID,-0.0169808,VALID,18.9876,VALID,87,VALID,0.499619,
2003-08-11, 00:30:00,VALID,918,VALID,0,VALID,99.9468,VALID,-0.0509425,VALID,18.9756,VALID,82,VALID,0.425042,
2003-08-11, 00:31:00,VALID,917.985,VALID,0,VALID,99.9468,VALID,-0.0169808,VALID,18.9597,VALID,65,VALID,0.237753,
2003-08-11, 00:32:00,VALID,917.962,VALID,0,VALID,99.924,VALID,-0.0679233,VALID,18.9011,VALID,51,VALID,0.343513,
2003-08-11, 00:33:00,VALID,917.961,VALID,0,VALID,99.9036,VALID,-0.0509425,VALID,18.8587,VALID,27,VALID,0.458826,
2003-08-11, 00:34:00,VALID,917.952,VALID,0,VALID,99.8973,VALID,-0.0679233,VALID,18.8524,VALID,27,VALID,0.198808,
2003-08-11, 00:35:00,VALID,917.936,VALID,0,VALID,99.8934,VALID,-0.0679233,VALID,18.8368,VALID,27,VALID,0.148003,
2003-08-11, 00:36:00,VALID,917.93,VALID,0,VALID,99.8998,VALID,-0.101885,VALID,18.8206,VALID,27,VALID,0.184544,
2003-08-11, 00:37:00,VALID,917.922,VALID,0,VALID,99.9163,VALID,-0.0169808,VALID,18.8072,VALID,27,VALID,0.243421,
2003-08-11, 00:38:00,VALID,917.895,VALID,0,VALID,99.9379,VALID,-0.0849042,VALID,18.8045,VALID,41,VALID,0.45477,
2003-08-11, 00:39:00,VALID,917.881,VALID,0,VALID,99.957,VALID,-0.0509425,VALID,18.8137,VALID,89,VALID,0.686415,
2003-08-11, 00:40:00,VALID,917.852,VALID,0,VALID,99.9931,VALID,-0.0509425,VALID,18.8239,VALID,104,VALID,0.640625,
2003-08-11, 00:41:00,VALID,917.853,VALID,0,VALID,100,VALID,-0.0849042,VALID,18.84,VALID,118,VALID,0.545847,
2003-08-11, 00:42:00,VALID,917.852,VALID,0,VALID,100,VALID,-0.0849042,VALID,18.843,VALID,118,VALID,0.2519,
2003-08-11, 00:43:00,VALID,917.846,VALID,0,VALID,100,VALID,-0.0849042,VALID,18.8591,VALID,118,VALID,0.164714,
2003-08-11, 00:44:00,VALID,917.846,VALID,0,VALID,100,VALID,-0.0849042,VALID,18.8661,VALID,118,VALID,0.0455078,
2003-08-11, 00:45:00,VALID,917.844,VALID,0,VALID,100,VALID,-0.101885,VALID,18.8462,VALID,118,VALID,0.179476,
2003-08-11, 00:46:00,VALID,917.838,VALID,0,VALID,100,VALID,-0.0849042,VALID,18.8077,VALID,118,VALID,0.137952,
2003-08-11, 00:47:00,VALID,917.834,VALID,0,VALID,100,VALID,-0.0509425,VALID,18.8204,VALID,118,VALID,0.03125,
2003-08-11, 00:48:00,VALID,917.822,VALID,0,VALID,100,VALID,-0.0849042,VALID,18.8239,VALID,117,VALID,0.13713,
2003-08-11, 00:49:00,VALID,917.81,VALID,0,VALID,100,VALID,-0.0679233,VALID,18.7754,VALID,117,VALID,0.20847,
2003-08-11, 00:50:00,VALID,917.802,VALID,0,VALID,99.9957,VALID,-0.0849042,VALID,18.7404,VALID,117,VALID,0.195964,
2003-08-11, 00:51:00,VALID,917.798,VALID,0,VALID,100,VALID,-0.101885,VALID,18.727,VALID,117,VALID,0.00844595,
2003-08-11, 00:52:00,VALID,917.809,VALID,0,VALID,100,VALID,-0.0679233,VALID,18.7498,VALID,117,VALID,0,
2003-08-11, 00:53:00,VALID,917.808,VALID,0,VALID,100,VALID,-0.0679233,VALID,18.7595,VALID,117,VALID,0,
2003-08-11, 00:54:00,VALID,917.802,VALID,0,VALID,100,VALID,-0.0849042,VALID,18.7275,VALID,117,VALID,0,
2003-08-11, 00:55:00,VALID,917.792,VALID,0,VALID,100,VALID,-0.0169808,VALID,18.7,VALID,117,VALID,0.097886,
2003-08-11, 00:56:00,VALID,917.789,VALID,0,VALID,100,VALID,-0.0169808,VALID,18.6744,VALID,55,VALID,0.604646,
2003-08-11, 00:57:00,VALID,917.786,VALID,0,VALID,99.9794,VALID,0,VALID,18.6098,VALID,48,VALID,0.701225,
2003-08-11, 00:58:00,VALID,917.787,VALID,0,VALID,99.943,VALID,-0.0169808,VALID,18.5455,VALID,40,VALID,0.723524,
2003-08-11, 00:59:00,VALID,917.792,VALID,0,VALID,99.8909,VALID,0,VALID,18.4876,VALID,31,VALID,0.872904,
2003-08-11, 01:00:00,VALID,917.785,VALID,0,VALID,99.9176,VALID,0.0169808,VALID,18.4549,VALID,28,VALID,0.944679,
2003-08-11, 01:01:00,VALID,917.775,VALID,0,VALID,99.9303,VALID,0,VALID,18.4357,VALID,26,VALID,0.884924,
2003-08-11, 01:02:00,VALID,917.767,VALID,0,VALID,99.9807,VALID,0,VALID,18.4479,VALID,19,VALID,0.993371,
2003-08-11, 01:03:00,VALID,917.753,VALID,0,VALID,100,VALID,0,VALID,18.5035,VALID,19,VALID,0.95587,
2003-08-11, 01:04:00,VALID,917.744,VALID,0,VALID,100,VALID,0,VALID,18.5455,VALID,22,VALID,0.791324,
2003-08-11, 01:05:00,VALID,917.718,VALID,0,VALID,100,VALID,0.0169808,VALID,18.5584,VALID,35,VALID,0.65191,
2003-08-11, 01:06:00,VALID,917.696,VALID,0,VALID,100,VALID,0,VALID,18.5716,VALID,35,VALID,0.566723,
2003-08-11, 01:07:00,VALID,917.677,VALID,0,VALID,100,VALID,0.0169808,VALID,18.5974,VALID,51,VALID,0.515831,
2003-08-11, 01:08:00,VALID,917.639,VALID,0,VALID,100,VALID,0,VALID,18.6294,VALID,54,VALID,0.583265,
2003-08-11, 01:09:00,VALID,917.623,VALID,0,VALID,100,VALID,0,VALID,18.6384,VALID,61,VALID,0.66428,
2003-08-11, 01:10:00,VALID,917.6,VALID,0,VALID,100,VALID,0,VALID,18.6746,VALID,62,VALID,0.669347,
2003-08-11, 01:11:00,VALID,917.561,VALID,0,VALID,100,VALID,0,VALID,18.7067,VALID,62,VALID,0.618832,
2003-08-11, 01:12:00,VALID,917.534,VALID,0,VALID,100,VALID,0.0509425,VALID,18.7042,VALID,72,VALID,0.774704,
2003-08-11, 01:13:00,VALID,917.499,VALID,0,VALID,100,VALID,0,VALID,18.6518,VALID,71,VALID,0.835286,
2003-08-11, 01:14:00,VALID,917.474,VALID,0,VALID,100,VALID,-0.0169808,VALID,18.6359,VALID,64,VALID,0.771484,
2003-08-11, 01:15:00,VALID,917.466,VALID,0,VALID,100,VALID,0,VALID,18.62,VALID,63,VALID,0.665118,
2003-08-11, 01:16:00,VALID,917.451,VALID,0,VALID,100,VALID,-0.0169808,VALID,18.6207,VALID,63,VALID,0.605674,
2003-08-11, 01:17:00,VALID,917.454,VALID,0,VALID,100,VALID,0,VALID,18.5909,VALID,63,VALID,0.442472,
2003-08-11, 01:18:00,VALID,917.446,VALID,0,VALID,100,VALID,0,VALID,18.5487,VALID,63,VALID,0.260691,
2003-08-11, 01:19:00,VALID,917.458,VALID,0,VALID,100,VALID,0,VALID,18.5134,VALID,63,VALID,0.0164474,
2003-08-11, 01:20:00,VALID,917.459,VALID,0,VALID,100,VALID,0,VALID,18.4941,VALID,63,VALID,0,
2003-08-11, 01:21:00,VALID,917.469,VALID,0,VALID,100,VALID,0.0169808,VALID,18.4576,VALID,63,VALID,0,
2003-08-11, 01:22:00,VALID,917.479,VALID,0,VALID,100,VALID,0.0169808,VALID,18.4353,VALID,63,VALID,0,
2003-08-11, 01:23:00,VALID,917.495,VALID,0,VALID,100,VALID,0,VALID,18.4,VALID,63,VALID,0.0501645,
2003-08-11, 01:24:00,VALID,917.498,VALID,0,VALID,100,VALID,0,VALID,18.4101,VALID,63,VALID,0.0475084,
2003-08-11, 01:25:00,VALID,917.498,VALID,0,VALID,100,VALID,-0.0849042,VALID,18.4143,VALID,63,VALID,0.272289,
2003-08-11, 01:26:00,VALID,917.501,VALID,0,VALID,100,VALID,-0.118866,VALID,18.3949,VALID,63,VALID,0.278988,
2003-08-11, 01:27:00,VALID,917.499,VALID,0,VALID,100,VALID,-0.0849042,VALID,18.4341,VALID,63,VALID,0.424831,
2003-08-11, 01:28:00,VALID,917.515,VALID,0,VALID,100,VALID,-0.0679233,VALID,18.489,VALID,104,VALID,0.406901,
2003-08-11, 01:29:00,VALID,917.509,VALID,0,VALID,100,VALID,-0.0849042,VALID,18.5573,VALID,226,VALID,0.380526,
2003-08-11, 01:30:00,VALID,917.518,VALID,0,VALID,100,VALID,-0.101885,VALID,18.6087,VALID,226,VALID,0.289696,
2003-08-11, 01:31:00,VALID,917.539,VALID,0,VALID,100,VALID,-0.0509425,VALID,18.608,VALID,226,VALID,0.136191,
2003-08-11, 01:32:00,VALID,917.541,VALID,0,VALID,100,VALID,-0.118866,VALID,18.5923,VALID,226,VALID,0.273911,
2003-08-11, 01:33:00,VALID,917.548,VALID,0,VALID,100,VALID,-0.0849042,VALID,18.6117,VALID,280,VALID,0.322213,
2003-08-11, 01:34:00,VALID,917.562,VALID,0,VALID,100,VALID,-0.0849042,VALID,18.6569,VALID,294,VALID,0.482113,
2003-08-11, 01:35:00,VALID,917.561,VALID,0,VALID,100,VALID,-0.0679233,VALID,18.6472,VALID,350,VALID,0.171658,
2003-08-11, 01:36:00,VALID,917.556,VALID,0,VALID,100,VALID,-0.0679233,VALID,18.6209,VALID,358,VALID,0,
2003-08-11, 01:37:00,VALID,917.54,VALID,0,VALID,100,VALID,-0.101885,VALID,18.5921,VALID,358,VALID,0.0431743,
2003-08-11, 01:38:00,VALID,917.537,VALID,0,VALID,100,VALID,-0.0849042,VALID,18.5118,VALID,12,VALID,0.238281,
2003-08-11, 01:39:00,VALID,917.526,VALID,0,VALID,100,VALID,-0.0849042,VALID,18.4277,VALID,130,VALID,0.381076,
2003-08-11, 01:40:00,VALID,917.512,VALID,0,VALID,100,VALID,0,VALID,18.3587,VALID,132,VALID,0.59398,
2003-08-11, 01:41:00,VALID,917.516,VALID,0,VALID,100,VALID,0.0169808,VALID,18.329,VALID,129,VALID,0.398026,
2003-08-11, 01:42:00,VALID,917.499,VALID,0,VALID,100,VALID,0.0169808,VALID,18.3426,VALID,127,VALID,0.392103,
2003-08-11, 01:43:00,VALID,917.49,VALID,0,VALID,100,VALID,0.0169808,VALID,18.3617,VALID,127,VALID,0.111545,
2003-08-11, 01:44:00,VALID,917.474,VALID,0,VALID,100,VALID,0,VALID,18.3746,VALID,127,VALID,0.136328,
2003-08-11, 01:45:00,VALID,917.441,VALID,0,VALID,100,VALID,0.0169808,VALID,18.3677,VALID,127,VALID,0.565456,
2003-08-11, 01:46:00,VALID,917.416,VALID,0,VALID,100,VALID,0,VALID,18.3908,VALID,113,VALID,0.666118,
2003-08-11, 01:47:00,VALID,917.386,VALID,0,VALID,100,VALID,0.0169808,VALID,18.429,VALID,114,VALID,0.762311,
2003-08-11, 01:48:00,VALID,917.36,VALID,0,VALID,100,VALID,0,VALID,18.4712,VALID,123,VALID,0.674342,
2003-08-11, 01:49:00,VALID,917.327,VALID,0,VALID,100,VALID,0.0169808,VALID,18.5038,VALID,139,VALID,0.534745,
2003-08-11, 01:50:00,VALID,917.33,VALID,0,VALID,100,VALID,0,VALID,18.536,VALID,149,VALID,0.546007,
2003-08-11, 01:51:00,VALID,917.328,VALID,0,VALID,100,VALID,0,VALID,18.5425,VALID,141,VALID,0.454603,
2003-08-11, 01:52:00,VALID,917.335,VALID,0,VALID,100,VALID,0,VALID,18.5457,VALID,141,VALID,0.200452,
2003-08-11, 01:53:00,VALID,917.341,VALID,0,VALID,100,VALID,0,VALID,18.5782,VALID,141,VALID,0,
2003-08-11, 01:54:00,VALID,917.337,VALID,0,VALID,100,VALID,0,VALID,18.5847,VALID,141,VALID,0,
2003-08-11, 01:55:00,VALID,917.325,VALID,0,VALID,100,VALID,0.0169808,VALID,18.6043,VALID,141,VALID,0,
2003-08-11, 01:56:00,VALID,917.335,VALID,0,VALID,100,VALID,0.0169808,VALID,18.6197,VALID,141,VALID,0,
2003-08-11, 01:57:00,VALID,917.324,VALID,0,VALID,100,VALID,0,VALID,18.6264,VALID,139,VALID,0,
2003-08-11, 01:58:00,VALID,917.343,VALID,0,VALID,100,VALID,0,VALID,18.5967,VALID,138,VALID,0,
2003-08-11, 01:59:00,VALID,917.355,VALID,0,VALID,100,VALID,0,VALID,18.6101,VALID,138,VALID,0.0085747,
2003-08-11, 02:00:00,VALID,917.376,VALID,0,VALID,100,VALID,0,VALID,18.6004,VALID,138,VALID,0.00633446,
2003-08-11, 02:01:00,VALID,917.414,VALID,0,VALID,100,VALID,0.0169808,VALID,18.5905,VALID,136,VALID,0.0306166,
2003-08-11, 02:02:00,VALID,917.436,VALID,0,VALID,100,VALID,0,VALID,18.5879,VALID,118,VALID,0.302794,
2003-08-11, 02:03:00,VALID,917.452,VALID,0,VALID,100,VALID,0,VALID,18.5649,VALID,68,VALID,0.547297,
2003-08-11, 02:04:00,VALID,917.46,VALID,0,VALID,100,VALID,0,VALID,18.5517,VALID,59,VALID,0.617188,
2003-08-11, 02:05:00,VALID,917.468,VALID,0,VALID,100,VALID,-0.0169808,VALID,18.5395,VALID,59,VALID,0.761068,
2003-08-11, 02:06:00,VALID,917.455,VALID,0,VALID,100,VALID,0,VALID,18.5266,VALID,64,VALID,0.902238,
2003-08-11, 02:07:00,VALID,917.453,VALID,0,VALID,100,VALID,-0.0169808,VALID,18.5264,VALID,77,VALID,1.07977,
2003-08-11, 02:08:00,VALID,917.447,VALID,0,VALID,100,VALID,0,VALID,18.5423,VALID,76,VALID,1.02385,
2003-08-11, 02:09:00,VALID,917.424,VALID,0,VALID,100,VALID,0.0169808,VALID,18.5619,VALID,69,VALID,0.98763,
2003-08-11, 02:10:00,VALID,917.409,VALID,0,VALID,100,VALID,0.0169808,VALID,18.5939,VALID,77,VALID,1.13212,
2003-08-11, 02:11:00,VALID,917.398,VALID,0,VALID,100,VALID,0,VALID,18.6163,VALID,82,VALID,0.760691,
2003-08-11, 02:12:00,VALID,917.372,VALID,0,VALID,100,VALID,0.0169808,VALID,18.6587,VALID,88,VALID,1.05236,
2003-08-11, 02:13:00,VALID,917.361,VALID,0,VALID,100,VALID,0.0169808,VALID,18.6679,VALID,88,VALID,0.996962,
2003-08-11, 02:14:00,VALID,917.349,VALID,0,VALID,100,VALID,0,VALID,18.6908,VALID,85,VALID,0.887891,
2003-08-11, 02:15:00,VALID,917.336,VALID,0,VALID,100,VALID,0.0169808,VALID,18.7231,VALID,76,VALID,0.787373,
2003-08-11, 02:16:00,VALID,917.339,VALID,0,VALID,100,VALID,0.0509425,VALID,18.7295,VALID,82,VALID,0.636924,
2003-08-11, 02:17:00,VALID,917.329,VALID,0,VALID,100,VALID,0.0169808,VALID,18.7327,VALID,95,VALID,0.600852,
2003-08-11, 02:18:00,VALID,917.333,VALID,0,VALID,100,VALID,0.0339617,VALID,18.739,VALID,104,VALID,0.697985,
2003-08-11, 02:19:00,VALID,917.315,VALID,0,VALID,100,VALID,0,VALID,18.7553,VALID,129,VALID,0.642681,
2003-08-11, 02:20:00,VALID,917.302,VALID,0,VALID,100,VALID,0,VALID,18.768,VALID,120,VALID,0.594835,
2003-08-11, 02:21:00,VALID,917.295,VALID,0,VALID,100,VALID,0.0509425,VALID,18.775,VALID,101,VALID,0.284628,
2003-08-11, 02:22:00,VALID,917.27,VALID,0,VALID,100,VALID,0,VALID,18.7876,VALID,101,VALID,0.395354,
2003-08-11, 02:23:00,VALID,917.246,VALID,0,VALID,100,VALID,0,VALID,18.7869,VALID,97,VALID,0.146382,
2003-08-11, 02:24:00,VALID,917.225,VALID,0,VALID,100,VALID,0,VALID,18.8031,VALID,99,VALID,0.128167,
2003-08-11, 02:25:00,VALID,917.201,VALID,0,VALID,100,VALID,-0.0849042,VALID,18.8211,VALID,107,VALID,0.276425,
2003-08-11, 02:26:00,VALID,917.188,VALID,0,VALID,100,VALID,-0.101885,VALID,18.8179,VALID,114,VALID,0.320929,
2003-08-11, 02:27:00,VALID,917.19,VALID,0,VALID,100,VALID,-0.0849042,VALID,18.8372,VALID,133,VALID,0.266258,
2003-08-11, 02:28:00,VALID,917.181,VALID,0,VALID,100,VALID,-0.0679233,VALID,18.8174,VALID,137,VALID,0.572049,
2003-08-11, 02:29:00,VALID,917.172,VALID,0,VALID,100,VALID,-0.101885,VALID,18.8179,VALID,142,VALID,0.640053,
2003-08-11, 02:30:00,VALID,917.162,VALID,0,VALID,100,VALID,-0.118866,VALID,18.8283,VALID,130,VALID,0.403083,
2003-08-11, 02:31:00,VALID,917.156,VALID,0,VALID,100,VALID,-0.0679233,VALID,18.7948,VALID,130,VALID,0.65815,
2003-08-11, 02:32:00,VALID,917.146,VALID,0,VALID,100,VALID,-0.101885,VALID,18.7856,VALID,143,VALID,0.673532,
2003-08-11, 02:33:00,VALID,917.143,VALID,0,VALID,100,VALID,-0.0849042,VALID,18.7891,VALID,129,VALID,0.276605,
2003-08-11, 02:34:00,VALID,917.14,VALID,0,VALID,100,VALID,-0.0849042,VALID,18.7754,VALID,126,VALID,0.387747,
2003-08-11, 02:35:00,VALID,917.142,VALID,0,VALID,100,VALID,-0.101885,VALID,18.7464,VALID,133,VALID,0.35026,
2003-08-11, 02:36:00,VALID,917.133,VALID,0,VALID,100,VALID,-0.0849042,VALID,18.7401,VALID,130,VALID,0.341005,
2003-08-11, 02:37:00,VALID,917.135,VALID,0,VALID,100,VALID,-0.101885,VALID,18.7171,VALID,59,VALID,0.539268,
2003-08-11, 02:38:00,VALID,917.128,VALID,0,VALID,100,VALID,-0.0849042,VALID,18.6922,VALID,58,VALID,0.662623,
2003-08-11, 02:39:00,VALID,917.118,VALID,0,VALID,100,VALID,-0.101885,VALID,18.6857,VALID,57,VALID,0.715929,
2003-08-11, 02:40:00,VALID,917.129,VALID,0,VALID,100,VALID,-0.0169808,VALID,18.6751,VALID,58,VALID,0.726563,
2003-08-11, 02:41:00,VALID,917.153,VALID,0,VALID,100,VALID,0,VALID,18.6622,VALID,52,VALID,0.750822,
2003-08-11, 02:42:00,VALID,917.166,VALID,0,VALID,100,VALID,0.0509425,VALID,18.6483,VALID,52,VALID,0.782517,
2003-08-11, 02:43:00,VALID,917.17,VALID,0,VALID,100,VALID,0.0169808,VALID,18.6197,VALID,53,VALID,0.764974,
2003-08-11, 02:44:00,VALID,917.179,VALID,0,VALID,100,VALID,0,VALID,18.5741,VALID,55,VALID,0.605664,
2003-08-11, 02:45:00,VALID,917.205,VALID,0,VALID,100,VALID,0.0169808,VALID,18.5483,VALID,49,VALID,0.523649,
2003-08-11, 02:46:00,VALID,917.232,VALID,0,VALID,100,VALID,0,VALID,18.5261,VALID,21,VALID,0.567023,
2003-08-11, 02:47:00,VALID,917.221,VALID,0,VALID,100,VALID,0,VALID,18.4809,VALID,20,VALID,0.410275,
2003-08-11, 02:48:00,VALID,917.237,VALID,0,VALID,100,VALID,0,VALID,18.4519,VALID,20,VALID,0.356291,
2003-08-11, 02:49:00,VALID,917.236,VALID,0,VALID,100,VALID,0.0169808,VALID,18.442,VALID,20,VALID,0.110609,
2003-08-11, 02:50:00,VALID,917.232,VALID,0,VALID,100,VALID,0,VALID,18.4394,VALID,20,VALID,0,
2003-08-11, 02:51:00,VALID,917.245,VALID,0,VALID,100,VALID,0,VALID,18.436,VALID,43,VALID,0.159417,
2003-08-11, 02:52:00,VALID,917.261,VALID,0,VALID,100,VALID,0.0339617,VALID,18.4288,VALID,136,VALID,0.424548,
2003-08-11, 02:53:00,VALID,917.268,VALID,0,VALID,100,VALID,0.0339617,VALID,18.4288,VALID,156,VALID,0.532072,
2003-08-11, 02:54:00,VALID,917.265,VALID,0,VALID,100,VALID,0.0169808,VALID,18.4226,VALID,158,VALID,0.673564,
2003-08-11, 02:55:00,VALID,917.269,VALID,0,VALID,100,VALID,-0.0679233,VALID,18.45,VALID,145,VALID,0.828355,
2003-08-11, 02:56:00,VALID,917.267,VALID,0,VALID,100,VALID,-0.101885,VALID,18.4858,VALID,144,VALID,0.603207,
2003-08-11, 02:57:00,VALID,917.267,VALID,0,VALID,100,VALID,-0.101885,VALID,18.5012,VALID,134,VALID,0.309122,
2003-08-11, 02:58:00,VALID,917.263,VALID,0,VALID,100,VALID,-0.101885,VALID,18.5211,VALID,124,VALID,0.353733,
2003-08-11, 02:59:00,VALID,917.259,VALID,0,VALID,100,VALID,-0.101885,VALID,18.531,VALID,123,VALID,0.233613,
2003-08-11, 03:00:00,VALID,917.251,VALID,0,VALID,100,VALID,-0.101885,VALID,18.5374,VALID,112,VALID,0.296875,
2003-08-11, 03:01:00,VALID,917.249,VALID,0,VALID,100,VALID,-0.101885,VALID,18.5243,VALID,60,VALID,0.638936,
2003-08-11, 03:02:00,VALID,917.241,VALID,0,VALID,100,VALID,-0.101885,VALID,18.5183,VALID,54,VALID,0.712121,
2003-08-11, 03:03:00,VALID,917.24,VALID,0,VALID,100,VALID,-0.118866,VALID,18.5344,VALID,48,VALID,0.677576,
2003-08-11, 03:04:00,VALID,917.242,VALID,0,VALID,100,VALID,-0.0679233,VALID,18.5206,VALID,42,VALID,0.48602,
2003-08-11, 03:05:00,VALID,917.252,VALID,0,VALID,100,VALID,-0.0849042,VALID,18.5208,VALID,42,VALID,0.281467,
2003-08-11, 03:06:00,VALID,917.245,VALID,0,VALID,100,VALID,-0.101885,VALID,18.5409,VALID,39,VALID,0.594806,
2003-08-11, 03:07:00,VALID,917.243,VALID,0,VALID,100,VALID,-0.101885,VALID,18.5437,VALID,50,VALID,0.749589,
2003-08-11, 03:08:00,VALID,917.242,VALID,0,VALID,100,VALID,-0.0849042,VALID,18.5534,VALID,51,VALID,0.932771,
2003-08-11, 03:09:00,VALID,917.236,VALID,0,VALID,100,VALID,-0.101885,VALID,18.5603,VALID,48,VALID,1.01823,
2003-08-11, 03:10:00,VALID,917.225,VALID,0,VALID,100,VALID,-0.0169808,VALID,18.5298,VALID,45,VALID,0.950138,
2003-08-11, 03:11:00,VALID,917.222,VALID,0,VALID,100,VALID,0,VALID,18.5201,VALID,44,VALID,0.934211,
2003-08-11, 03:12:00,VALID,917.231,VALID,0,VALID,100,VALID,-0.0509425,VALID,18.5104,VALID,55,VALID,0.709671,
2003-08-11, 03:13:00,VALID,917.245,VALID,0,VALID,100,VALID,-0.0169808,VALID,18.5271,VALID,71,VALID,0.81033,
2003-08-11, 03:14:00,VALID,917.262,VALID,0,VALID,100,VALID,-0.0339617,VALID,18.5137,VALID,75,VALID,0.562695,
2003-08-11, 03:15:00,VALID,917.275,VALID,0,VALID,100,VALID,0,VALID,18.5072,VALID,79,VALID,0.670397,
2003-08-11, 03:16:00,VALID,917.27,VALID,0,VALID,100,VALID,-0.0169808,VALID,18.504,VALID,87,VALID,0.672697,
2003-08-11, 03:17:00,VALID,917.261,VALID,0,VALID,100,VALID,0,VALID,18.5005,VALID,79,VALID,0.568892,
2003-08-11, 03:18:00,VALID,917.256,VALID,0,VALID,100,VALID,0,VALID,18.507,VALID,79,VALID,0.391036,
2003-08-11, 03:19:00,VALID,917.27,VALID,0,VALID,100,VALID,-0.0169808,VALID,18.471,VALID,53,VALID,0.506579,
2003-08-11, 03:20:00,VALID,917.271,VALID,0,VALID,100,VALID,0,VALID,18.4484,VALID,52,VALID,0.579644,
2003-08-11, 03:21:00,VALID,917.284,VALID,0,VALID,100,VALID,0,VALID,18.4325,VALID,52,VALID,0.489654,
2003-08-11, 03:22:00,VALID,917.301,VALID,0,VALID,100,VALID,-0.0169808,VALID,18.4168,VALID,52,VALID,0.535979,
2003-08-11, 03:23:00,VALID,917.319,VALID,0,VALID,100,VALID,0,VALID,18.4164,VALID,52,VALID,0.540707,
2003-08-11, 03:24:00,VALID,917.319,VALID,0,VALID,100,VALID,0,VALID,18.4394,VALID,52,VALID,0.320946,
2003-08-11, 03:25:00,VALID,917.318,VALID,0,VALID,100,VALID,0,VALID,18.4394,VALID,35,VALID,0.182445,
2003-08-11, 03:26:00,VALID,917.319,VALID,0,VALID,100,VALID,0,VALID,18.4459,VALID,357,VALID,0.503289,
2003-08-11, 03:27:00,VALID,917.297,VALID,0,VALID,100,VALID,-0.0169808,VALID,18.4583,VALID,357,VALID,0.552998,
2003-08-11, 03:28:00,VALID,917.295,VALID,0,VALID,100,VALID,0,VALID,18.5137,VALID,357,VALID,0.354167,
2003-08-11, 03:29:00,VALID,917.274,VALID,0,VALID,100,VALID,0,VALID,18.5623,VALID,333,VALID,0.21189,
2003-08-11, 03:30:00,VALID,917.266,VALID,0,VALID,100,VALID,0,VALID,18.5686,VALID,276,VALID,0.389992,
2003-08-11, 03:31:00,VALID,917.246,VALID,0,VALID,100,VALID,0,VALID,18.5912,VALID,266,VALID,0.573902,
2003-08-11, 03:32:00,VALID,917.24,VALID,0,VALID,100,VALID,-0.0169808,VALID,18.5748,VALID,241,VALID,0.547348,
2003-08-11, 03:33:00,VALID,917.241,VALID,0,VALID,100,VALID,0,VALID,18.5621,VALID,237,VALID,0.485008,
2003-08-11, 03:34:00,VALID,917.232,VALID,0,VALID,100,VALID,0,VALID,18.5586,VALID,237,VALID,0.355469,
2003-08-11, 03:35:00,VALID,917.231,VALID,0,VALID,100,VALID,0,VALID,18.5356,VALID,237,VALID,0.118273,
2003-08-11, 03:36:00,VALID,917.206,VALID,0,VALID,100,VALID,-0.0169808,VALID,18.5621,VALID,240,VALID,0.177576,
2003-08-11, 03:37:00,VALID,917.191,VALID,0,VALID,100,VALID,0,VALID,18.5653,VALID,246,VALID,0.00411184,
2003-08-11, 03:38:00,VALID,917.192,VALID,0,VALID,100,VALID,0,VALID,18.5653,VALID,331,VALID,0.103413,
2003-08-11, 03:39:00,VALID,917.183,VALID,0,VALID,100,VALID,0,VALID,18.5494,VALID,343,VALID,0,
2003-08-11, 03:40:00,VALID,917.194,VALID,0,VALID,100,VALID,-0.0339617,VALID,18.5164,VALID,343,VALID,0.0107996,
2003-08-11, 03:41:00,VALID,917.211,VALID,0,VALID,100,VALID,0,VALID,18.4613,VALID,294,VALID,0.412007,
2003-08-11, 03:42:00,VALID,917.214,VALID,0,VALID,100,VALID,-0.0169808,VALID,18.4519,VALID,253,VALID,0.335726,
2003-08-11, 03:43:00,VALID,917.223,VALID,0,VALID,100,VALID,0,VALID,18.4553,VALID,252,VALID,0.00434028,